Total_Precipitation_Accumulation
0.01 0.02 0.05 0.05 0.04 0.04 0.04 0.06 0.07 0.06 0.05 0.07 0.08 0.06 0.03 0.02 0.02 0.01 0.01 0.01 0.01 0.02 0.03 0.03 0.04 0.06 0.08 0.08 0.09 0.08 0.07 0.05 0.05 0.07 0.09 0.11 0.16 0.23 0.30 0.27 0.37 0.30 0.20
0.01 0.02 0.05 0.05 0.04 0.04 0.04 0.06 0.07 0.07 0.06 0.05 0.05 0.04 0.03 0.03 0.02 0.01 0.01 0.01 0.02 0.02 0.02 0.03 0.03 0.03 0.05 0.04 0.04 0.04 0.04 0.04 0.06 0.10 0.14 0.15 0.20 0.26 0.28 0.24 0.36 0.27 0.18
0.02 0.02 0.03 0.05 0.04 0.05 0.05 0.06 0.07 0.07 0.07 0.06 0.06 0.05 0.04 0.03 0.03 0.02 0.02 0.02 0.02 0.02 0.03 0.03 0.03 0.02 0.02 0.02 0.02 0.02 0.04 0.05 0.09 0.17 0.29 0.26 0.17 0.25 0.29 0.25 0.21 0.14 0.14
0.02 0.01 0.01 0.05 0.05 0.04 0.05 0.05 0.07 0.08 0.08 0.08 0.07 0.06 0.05 0.04 0.04 0.03 0.03 0.03 0.03 0.03 0.03 0.02 0.03 0.02 0.02 0.01 0.02 0.02 0.04 0.06 0.12 0.21 0.47 0.31 0.15 0.15 0.19 0.16 0.13 0.12 0.12
0.03 0.02 0.03 0.04 0.04 0.04 0.04 0.05 0.07 0.08 0.09 0.09 0.08 0.06 0.06 0.06 0.06 0.05 0.04 0.03 0.03 0.03 0.03 0.03 0.02 0.02 0.02 0.02 0.03 0.03 0.04 0.07 0.11 0.19 0.31 0.32 0.35 0.18 0.12 0.12 0.12 0.13 0.13
0.04 0.04 0.04 0.05 0.04 0.04 0.05 0.05 0.06 0.07 0.09 0.09 0.08 0.07 0.06 0.07 0.06 0.06 0.04 0.04 0.04 0.04 0.04 0.04 0.03 0.02 0.02 0.02 0.04 0.04 0.06 0.10 0.14 0.18 0.17 0.23 0.33 0.21 0.15 0.19 0.20 0.15 0.13
0.06 0.07 0.07 0.07 0.06 0.06 0.06 0.06 0.06 0.07 0.08 0.08 0.07 0.07 0.07 0.07 0.06 0.06 0.05 0.05 0.05 0.05 0.05 0.06 0.05 0.04 0.03 0.02 0.04 0.05 0.08 0.13 0.18 0.18 0.15 0.24 0.32 0.19 0.21 0.34 0.41 0.31 0.19
0.11 0.13 0.13 0.12 0.11 0.09 0.08 0.07 0.08 0.08 0.09 0.10 0.10 0.09 0.09 0.08 0.08 0.07 0.07 0.07 0.08 0.08 0.07 0.07 0.07 0.06 0.05 0.04 0.06 0.07 0.08 0.11 0.13 0.15 0.15 0.24 0.23 0.17 0.24 0.42 0.55 0.54 0.43
0.28 0.39 0.31 0.18 0.15 0.15 0.13 0.13 0.11 0.12 0.13 0.13 0.13 0.12 0.12 0.12 0.12 0.11 0.12 0.14 0.15 0.16 0.15 0.11 0.09 0.10 0.10 0.08 0.07 0.08 0.09 0.11 0.17 0.23 0.21 0.26 0.20 0.21 0.31 0.41 0.53 0.61 0.60
0.30 0.39 0.39 0.24 0.19 0.16 0.14 0.15 0.16 0.17 0.17 0.16 0.15 0.15 0.14 0.14 0.16 0.18 0.20 0.25 0.28 0.32 0.32 0.25 0.20 0.19 0.19 0.18 0.12 0.11 0.12 0.12 0.10 0.17 0.32 0.33 0.27 0.33 0.44 0.47 0.54 0.64 0.69
0.38 0.42 0.42 0.26 0.20 0.18 0.18 0.19 0.22 0.22 0.22 0.21 0.23 0.22 0.23 0.24 0.33 0.47 0.45 0.57 0.54 0.57 0.56 0.51 0.47 0.46 0.48 0.36 0.29 0.30 0.25 0.12 0.10 0.18 0.32 0.33 0.39 0.58 0.70 0.59 0.57 0.63 0.67
0.54 0.57 0.48 0.32 0.26 0.26 0.23 0.27 0.30 0.32 0.45 0.42 0.52 0.60 0.63 0.71 0.66 0.56 0.75 1.00 1.07 1.08 1.02 0.99 1.07 0.99 0.82 0.63 0.94 1.08 0.43 0.21 0.21 0.21 0.39 0.59 0.77 1.00 1.15 0.95 0.76 0.70 0.68
0.62 0.46 0.45 0.38 0.35 0.32 0.34 0.37 0.45 0.56 0.86 0.76 0.71 0.84 1.03 0.97 0.77 0.68 0.82 1.11 1.39 1.43 1.29 1.45 1.64 1.28 1.21 1.25 1.44 1.52 0.85 0.56 0.41 0.47 0.50 0.80 1.08 1.35 1.58 1.44 1.12 0.95 0.84
0.91 0.78 0.64 0.62 0.58 0.64 0.68 0.63 0.59 0.68 0.85 0.83 0.90 0.86 1.13 1.17 1.02 0.94 1.04 1.18 1.42 1.62 1.89 1.91 2.03 1.95 1.85 1.69 1.69 1.56 1.37 1.17 0.88 1.00 1.17 1.26 1.37 1.55 1.81 1.86 1.61 1.28 1.07
1.17 1.08 1.05 1.04 1.05 1.12 1.05 0.98 0.83 0.85 0.87 0.91 1.06 1.10 1.23 1.42 1.43 1.47 1.46 1.41 1.40 1.75 2.15 2.31 2.12 2.34 2.38 2.06 1.77 1.61 1.53 1.48 1.56 1.68 1.68 1.93 1.89 1.83 2.00 2.07 1.90 1.64 1.44
1.31 1.36 1.57 1.64 1.68 1.70 1.69 1.59 1.40 1.30 1.32 1.31 1.38 1.56 1.70 1.81 1.97 1.99 1.88 1.76 1.59 1.67 1.94 2.14 2.16 2.38 2.25 2.15 1.63 1.54 1.50 1.55 1.65 1.66 1.60 2.10 2.14 1.93 1.88 1.94 1.97 1.85 1.69
1.51 1.81 2.13 2.30 2.44 2.46 2.43 2.25 1.98 1.82 1.91 2.06 2.08 2.17 2.18 2.23 2.42 2.33 2.06 1.80 1.72 1.80 1.90 1.91 1.93 2.03 1.87 1.79 1.57 1.65 1.62 1.47 1.34 1.36 1.46 1.67 1.71 1.59 1.54 1.57 1.70 1.82 1.93
2.02 2.43 2.74 2.89 3.11 3.20 3.12 2.83 2.45 2.25 2.25 2.33 2.39 2.36 2.36 2.37 2.33 2.26 1.93 1.62 1.71 1.82 1.81 1.78 1.68 1.76 1.72 1.72 1.68 1.61 1.64 1.50 1.22 1.19 1.25 1.25 1.29 1.17 1.29 1.36 1.42 1.58 1.92
2.35 2.87 3.36 3.77 4.00 4.05 3.66 3.02 2.63 2.55 2.52 2.48 2.50 2.37 2.25 2.14 2.08 2.16 1.84 1.68 1.74 1.68 1.58 1.51 1.66 1.82 1.74 1.72 1.69 1.55 1.35 1.17 0.99 0.88 0.87 0.79 0.89 0.98 1.10 1.21 1.26 1.36 1.73
2.41 2.97 3.63 4.22 4.37 4.12 3.46 2.90 2.76 2.64 2.43 2.26 2.04 1.85 1.70 1.71 1.70 1.79 1.59 1.54 1.64 1.59 1.45 1.52 1.67 1.77 1.56 1.62 1.54 1.27 1.13 0.91 0.83 0.73 0.61 0.59 0.57 0.59 0.73 1.02 1.27 1.11 1.38
2.66 3.10 3.61 4.03 3.98 3.67 3.27 2.85 2.58 2.22 1.98 1.75 1.48 1.29 1.20 1.17 1.23 1.39 1.25 1.34 1.41 1.34 1.27 1.28 1.37 1.40 1.22 1.46 1.55 1.09 0.79 0.69 0.62 0.55 0.55 0.54 0.48 0.55 0.69 0.92 1.10 1.14 1.09
2.54 2.80 2.99 2.83 2.52 2.33 2.21 2.05 1.76 1.70 1.67 1.61 1.50 1.30 1.11 1.11 1.10 1.05 1.04 1.05 1.11 1.15 1.05 1.02 1.15 1.12 0.96 1.22 1.32 1.17 0.77 0.58 0.49 0.42 0.45 0.44 0.48 0.61 0.64 0.73 0.94 1.03 0.97
1.97 2.09 1.95 1.60 1.28 1.20 1.18 1.10 1.22 1.39 1.50 1.54 1.57 1.48 1.31 1.25 1.22 1.16 1.07 0.99 0.95 0.98 0.98 0.96 1.04 1.04 0.92 0.97 1.09 1.25 0.97 0.63 0.48 0.35 0.37 0.45 0.57 0.69 0.68 0.75 0.82 0.95 0.93
1.27 1.16 1.05 0.90 0.72 0.64 0.62 0.66 0.74 0.93 1.22 1.42 1.59 1.64 1.64 1.54 1.39 1.27 1.15 0.97 0.84 0.81 0.85 0.79 0.85 0.97 0.98 0.87 0.88 0.95 0.98 0.99 0.89 0.52 0.33 0.36 0.55 0.65 0.67 0.69 0.76 0.90 1.00
0.71 0.63 0.56 0.56 0.53 0.52 0.52 0.61 0.64 0.60 0.66 0.67 0.75 0.89 1.04 1.16 1.12 0.98 0.92 0.86 0.76 0.69 0.69 0.72 0.83 0.92 0.95 0.87 0.87 0.86 0.91 1.05 1.06 0.92 0.58 0.50 0.57 0.55 0.54 0.60 0.72 0.86 0.99
0.44 0.41 0.44 0.50 0.58 0.56 0.57 0.60 0.60 0.58 0.63 0.61 0.62 0.66 0.64 0.68 0.70 0.67 0.66 0.69 0.68 0.66 0.66 0.67 0.73 0.82 0.90 0.95 0.97 1.01 1.05 1.07 1.13 1.21 0.98 0.81 0.74 0.66 0.63 0.73 0.85 1.03 1.15